TimeMDT,TemperatureF,Dew PointF,Humidity,Sea Level PressureIn,VisibilityMPH,Wind Direction,Wind SpeedMPH,Gust SpeedMPH,PrecipitationIn,Events,Conditions,WindDirDegrees,DateUTC
12:53 AM,63.0,59.0,87,29.91,10.0,ESE,11.5,-,N/A,,Clear,120,2013-08-04 06:53:00
1:53 AM,60.1,55.9,86,29.91,10.0,SE,4.6,-,N/A,,Clear,130,2013-08-04 07:53:00
2:53 AM,57.9,55.0,90,29.91,10.0,SSE,5.8,-,N/A,,Clear,150,2013-08-04 08:53:00
3:53 AM,55.9,54.0,93,29.93,10.0,Calm,Calm,-,N/A,,Clear,0,2013-08-04 09:53:00
4:53 AM,55.0,53.1,93,29.96,10.0,NW,6.9,-,N/A,,Clear,310,2013-08-04 10:53:00
5:53 AM,55.0,53.1,93,30.00,10.0,NW,3.5,-,N/A,,Clear,310,2013-08-04 11:53:00
6:53 AM,59.0,54.0,83,30.01,10.0,NNW,5.8,-,N/A,,Clear,330,2013-08-04 12:53:00
7:53 AM,64.9,57.0,75,30.01,10.0,NW,9.2,-,N/A,,Clear,310,2013-08-04 13:53:00
8:53 AM,71.1,57.9,63,30.01,10.0,WNW,12.7,-,N/A,,Clear,300,2013-08-04 14:53:00
9:16 AM,71.6,57.2,60,30.18,10.0,NW,8.1,-,N/A,,Mostly Cloudy,320,2013-08-04 15:16:00
9:41 AM,71.6,59.0,64,30.18,10.0,North,10.4,-,N/A,,Scattered Clouds,360,2013-08-04 15:41:00
9:53 AM,72.0,60.1,66,30.01,10.0,North,8.1,-,N/A,,Clear,10,2013-08-04 15:53:00
10:53 AM,75.9,59.0,56,29.99,10.0,North,3.5,-,N/A,,Clear,350,2013-08-04 16:53:00
11:53 AM,78.1,59.0,52,29.97,10.0,Calm,Calm,-,N/A,,Clear,0,2013-08-04 17:53:00
12:53 PM,84.0,55.9,38,29.94,10.0,Variable,5.8,-,N/A,,Clear,0,2013-08-04 18:53:00
1:53 PM,88.0,46.0,23,29.91,10.0,NW,8.1,-,N/A,,Clear,320,2013-08-04 19:53:00
2:53 PM,89.1,45.0,22,29.89,10.0,Variable,3.5,-,N/A,,Clear,0,2013-08-04 20:53:00
3:53 PM,88.0,39.0,18,29.88,10.0,SW,4.6,-,N/A,,Clear,220,2013-08-04 21:53:00
4:53 PM,89.1,39.9,18,29.86,10.0,Variable,3.5,-,0.00,,Clear,0,2013-08-04 22:53:00
5:53 PM,89.1,42.1,19,29.85,10.0,ESE,6.9,-,N/A,,Clear,110,2013-08-04 23:53:00
6:53 PM,87.1,42.1,21,29.85,10.0,East,9.2,19.6,N/A,,Clear,100,2013-08-05 00:53:00
7:36 PM,82.4,41.0,23,30.04,10.0,ENE,15.0,-,N/A,Thunderstorm,Scattered Clouds,60,2013-08-05 01:36:00
7:53 PM,82.0,39.9,22,29.84,10.0,East,17.3,23.0,N/A,Thunderstorm,Partly Cloudy,90,2013-08-05 01:53:00
8:17 PM,78.8,48.2,34,30.04,10.0,East,16.1,24.2,N/A,,Clear,100,2013-08-05 02:17:00
8:53 PM,73.0,50.0,44,29.87,10.0,ESE,18.4,26.5,N/A,,Clear,120,2013-08-05 02:53:00
9:53 PM,71.1,52.0,51,29.88,10.0,SE,17.3,25.3,N/A,,Clear,130,2013-08-05 03:53:00
10:53 PM,69.1,51.1,53,29.88,10.0,ESE,10.4,-,N/A,,Clear,120,2013-08-05 04:53:00
11:53 PM,69.1,50.0,51,29.87,10.0,SSE,10.4,-,N/A,,Clear,160,2013-08-05 05:53:00